Weather in Urynok

Russia / Oryol Oblast     52°04′23″N   37°20′29″E
temp.,
°C
wind,
m/s
gust,
m/s
humid.,
%
clouds,
%
prec.,
mm/h
press.,
hPa
HPBL,
m
7 may, fri
fri700:00+7nnw3695100 3.3 1012452
03:00+7wsw2494100 4.8 1013173
06:00+6wsw359652 0.0 1014217
09:00+11wnw346220 0.0 1015920
12:00+14w34425 0.0 10161898
15:00+15sw333817 0.0 10152052
18:00+14s355499 0.0 1015288
21:00+10se4864100 0.0 1014140
8 may, sat
sat800:00+10sse61563100 0.0 1013386
03:00+10sse71766100 0.0 1012566
06:00+10sse91873100 0.6 1009686
09:00+9sse81791100 4.1 1007812
12:00+11s81593100 2.1 1006977
15:00+10w61087100 3.8 1008790
18:00+10wsw71178100 0.2 1009991
21:00+5w71390100 0.2 1012750
9 may, sun
sun900:00+5wnw61383100 0.0 1014786
03:00+4wnw51085100 0.0 1016614
06:00+3wnw41089100 0.0 1018361
09:00+8nw576771 0.0 1019897
12:00+11nnw785387 0.1 10191975
15:00+10nnw795754 0.2 10211623
18:00+10n69585 0.1 10231791
21:00+5n34740 0.1 102648
10 may, mon
mon1000:00+4nnw35770 0.0 102768
03:00+3nnw37805 0.0 1029114
06:00+3n310785 0.0 1030220
09:00+10nne58568 0.0 1031700
12:00+13nne68465 0.0 10301464
15:00+14nne78455 0.0 10291605
18:00+13nne58570 0.0 10291066
21:00+8nne49750 0.0 1030144
11 may, tue
tue1100:00+6ne410810 0.0 1030174
03:00+5nne411840 0.0 1030196
06:00+6ne513800 0.0 1030320
09:00+12ne812590 0.0 1029721
12:00+15ene7951100 0.0 1028909
15:00+17ne79515 0.0 1026954
18:00+16ene610625 0.0 1026889
21:00+11ne513785 0.0 1025321